This is the latest recevied weather packets stored in our database for station/object KC4LZN. If no packets are shown the sender has not sent any weather packets the latest 1 day(s).
| Time | Temp. | Humidity | Pressure | Rain* | Wind** | Luminosity | Snow |
|---|---|---|---|---|---|---|---|
| 1778031103 | 22.78° C | 62% | 1016.7 hPa | 0 mm | 0 m/s | 0 W/m² | - |
| 1778030799 | 22.78° C | 61% | 1016.6 hPa | 0 mm | 0.45 m/s, 29° | 0 W/m² | - |
| 1778030496 | 22.78° C | 61% | 1016.7 hPa | 0 mm | 0.45 m/s, 70° | 0 W/m² | - |
| 1778030193 | 22.78° C | 60% | 1016.4 hPa | 0 mm | 0.45 m/s, 214° | 0 W/m² | - |
| 1778029890 | 23.33° C | 60% | 1016.5 hPa | 0 mm | 1.34 m/s, 62° | 0 W/m² | - |
| 1778029588 | 23.33° C | 60% | 1016.6 hPa | 0 mm | 0 m/s | 0 W/m² | - |
| 1778029285 | 23.33° C | 60% | 1016.5 hPa | 0 mm | 0.45 m/s, 118° | 0 W/m² | - |
| 1778028982 | 23.33° C | 59% | 1016.5 hPa | 0 mm | 1.79 m/s, 42° | 0 W/m² | - |
| 1778028678 | 23.89° C | 59% | 1016.3 hPa | 0 mm | 0.45 m/s, 47° | 0 W/m² | - |
| 1778028375 | 23.89° C | 59% | 1016.3 hPa | 0 mm | 0.89 m/s, 75° | 0 W/m² | - |
| 1778028072 | 23.89° C | 59% | 1016.3 hPa | 0 mm | 1.34 m/s, 41° | 0 W/m² | - |
| 1778027768 | 23.89° C | 59% | 1016.2 hPa | 0 mm | 1.79 m/s, 67° | 0 W/m² | - |
| 1778027464 | 23.89° C | 59% | 1016 hPa | 0 mm | 0.89 m/s, 56° | 0 W/m² | - |
| 1778027160 | 23.89° C | 58% | 1016 hPa | 0 mm | 0.89 m/s, 303° | 0 W/m² | - |
| 1778026856 | 24.44° C | 58% | 1015.8 hPa | 0 mm | 1.79 m/s, 106° | 0 W/m² | - |
| 1778026553 | 24.44° C | 57% | 1015.7 hPa | 0 mm | 1.79 m/s, 92° | 0 W/m² | - |
| 1778026250 | 24.44° C | 57% | 1015.9 hPa | 0 mm | 0.89 m/s, 45° | 1 W/m² | - |
| 1778025947 | 24.44° C | 57% | 1015.9 hPa | 0 mm | 1.79 m/s, 81° | 2 W/m² | - |
| 1778025645 | 24.44° C | 57% | 1015.9 hPa | 0 mm | 0 m/s | 4 W/m² | - |
| 1778025343 | 25° C | 56% | 1015.6 hPa | 0 mm | 0.89 m/s, 109° | 7 W/m² | - |
| 1778025039 | 25° C | 56% | 1015.7 hPa | 0 mm | 0.89 m/s, 56° | 12 W/m² | - |
| 1778024736 | 25° C | 55% | 1015.5 hPa | 0 mm | 2.24 m/s, 67° | 18 W/m² | - |
| 1778024433 | 25° C | 55% | 1015.5 hPa | 0 mm | 2.24 m/s, 76° | 22 W/m² | - |
| 1778024130 | 25.56° C | 55% | 1015.6 hPa | 0 mm | 1.79 m/s, 97° | 29 W/m² | - |
| 1778023828 | 25.56° C | 55% | 1015.5 hPa | 0 mm | 1.34 m/s, 102° | 36 W/m² | - |
* Rain latest hour (hover to see other rain measurements)
** Current wind speed in m/s (hover to see current wind gust speed)